Time,TemperatureF,DewpointF,PressureIn,WindDirection,WindDirectionDegrees,WindSpeedMPH,WindSpeedGustMPH,Humidity,HourlyPrecipIn,Conditions,Clouds,dailyrainin,SoftwareType,DateUTC
2013-07-02 00:00:00,79.7,53.3,29.76,ESE,120,13.0,27.0,40,0.00,,---,0.00,VWS V14.00,2013-07-02 07:00:00,
2013-07-02 00:02:00,79.7,53.3,29.76,ESE,119,10.0,14.0,40,0.00,,---,0.00,VWS V14.00,2013-07-02 07:02:00,
2013-07-02 00:07:00,79.0,54.0,29.76,ESE,113,9.0,21.0,42,0.00,,---,0.00,VWS V14.00,2013-07-02 07:07:00,
2013-07-02 00:12:00,78.1,55.0,29.75,ESE,111,23.0,27.0,45,0.00,,---,0.00,VWS V14.00,2013-07-02 07:12:00,
2013-07-02 00:17:00,77.0,54.7,29.76,East,96,22.0,27.0,46,0.00,,---,0.00,VWS V14.00,2013-07-02 07:17:00,
2013-07-02 00:22:00,75.9,55.4,29.77,East,96,15.0,31.0,49,0.00,,---,0.00,VWS V14.00,2013-07-02 07:22:00,
2013-07-02 00:27:00,75.2,54.8,29.76,East,93,10.0,31.0,49,0.00,,---,0.00,VWS V14.00,2013-07-02 07:27:00,
2013-07-02 00:30:00,74.8,54.9,29.75,ESE,107,7.0,31.0,50,0.00,,---,0.00,VWS V14.00,2013-07-02 07:30:00,
2013-07-02 00:32:00,74.8,54.9,29.75,ESE,111,22.0,22.0,50,0.00,,---,0.00,VWS V14.00,2013-07-02 07:32:00,
2013-07-02 00:37:00,74.2,54.9,29.76,ESE,116,6.0,27.0,51,0.00,,---,0.00,VWS V14.00,2013-07-02 07:37:00,
2013-07-02 00:42:00,73.6,53.8,29.76,SE,130,8.0,27.0,50,0.00,,---,0.00,VWS V14.00,2013-07-02 07:42:00,
2013-07-02 00:47:00,73.7,53.4,29.77,ESE,111,11.0,27.0,49,0.00,,---,0.00,VWS V14.00,2013-07-02 07:47:00,
2013-07-02 00:52:00,74.0,52.5,29.76,ESE,114,5.0,27.0,47,0.00,,---,0.00,VWS V14.00,2013-07-02 07:52:00,
2013-07-02 00:57:00,74.3,52.8,29.76,ESE,109,11.0,27.0,47,0.00,,---,0.00,VWS V14.00,2013-07-02 07:57:00,
2013-07-02 01:00:00,74.2,52.1,29.76,ESE,109,11.0,27.0,46,0.00,,---,0.00,VWS V14.00,2013-07-02 08:00:00,
2013-07-02 01:02:00,74.2,52.1,29.76,ESE,102,14.0,17.0,46,0.00,,---,0.00,VWS V14.00,2013-07-02 08:02:00,
2013-07-02 01:07:00,74.2,52.1,29.75,ESE,113,14.0,20.0,46,0.00,,---,0.00,VWS V14.00,2013-07-02 08:07:00,
2013-07-02 01:12:00,74.3,52.2,29.75,SE,144,14.0,24.0,46,0.00,,---,0.00,VWS V14.00,2013-07-02 08:12:00,
2013-07-02 01:17:00,74.6,51.9,29.75,SE,124,3.0,24.0,45,0.00,,---,0.00,VWS V14.00,2013-07-02 08:17:00,
2013-07-02 01:22:00,74.7,52.0,29.76,SE,127,12.0,24.0,45,0.00,,---,0.00,VWS V14.00,2013-07-02 08:22:00,
2013-07-02 01:27:00,74.8,52.1,29.76,ESE,118,9.0,24.0,45,0.00,,---,0.00,VWS V14.00,2013-07-02 08:27:00,
2013-07-02 01:30:00,75.0,51.6,29.77,ESE,113,14.0,24.0,44,0.00,,---,0.00,VWS V14.00,2013-07-02 08:30:00,
2013-07-02 01:32:00,75.0,51.6,29.77,ESE,107,12.0,14.0,44,0.00,,---,0.00,VWS V14.00,2013-07-02 08:32:00,
2013-07-02 01:37:00,75.2,52.4,29.79,East,92,7.0,19.0,45,0.00,,---,0.00,VWS V14.00,2013-07-02 08:37:00,
2013-07-02 01:42:00,75.5,53.3,29.84,NE,55,11.0,19.0,46,0.00,,---,0.00,VWS V14.00,2013-07-02 08:42:00,
2013-07-02 01:47:00,71.6,57.0,29.86,NE,56,5.0,25.0,60,0.00,,---,0.01,VWS V14.00,2013-07-02 08:47:00,
2013-07-02 01:52:00,67.2,57.1,29.87,NE,49,4.0,25.0,70,0.57,,---,0.07,VWS V14.00,2013-07-02 08:52:00,
2013-07-02 01:57:00,65.0,56.5,29.85,ENE,69,15.0,25.0,74,0.24,,---,0.10,VWS V14.00,2013-07-02 08:57:00,
2013-07-02 02:00:00,64.1,56.4,29.83,East,95,12.0,25.0,76,0.40,,---,0.13,VWS V14.00,2013-07-02 09:00:00,
2013-07-02 02:02:00,64.1,56.4,29.83,ESE,102,16.0,21.0,76,0.40,,---,0.13,VWS V14.00,2013-07-02 09:02:00,
2013-07-02 02:07:00,63.2,56.6,29.83,East,98,13.0,24.0,79,0.62,,---,0.18,VWS V14.00,2013-07-02 09:07:00,
2013-07-02 02:12:00,62.9,56.6,29.83,East,84,9.0,24.0,80,0.32,,---,0.21,VWS V14.00,2013-07-02 09:12:00,
2013-07-02 02:17:00,63.2,56.9,29.83,ENE,75,6.0,24.0,80,0.17,,---,0.22,VWS V14.00,2013-07-02 09:17:00,
2013-07-02 02:22:00,63.3,57.0,29.83,ENE,68,17.0,24.0,80,0.11,,---,0.23,VWS V14.00,2013-07-02 09:22:00,
2013-07-02 02:27:00,63.4,57.1,29.83,ENE,74,11.0,24.0,80,0.08,,---,0.23,VWS V14.00,2013-07-02 09:27:00,
2013-07-02 02:30:00,63.6,57.0,29.84,East,79,4.0,24.0,79,0.05,,---,0.23,VWS V14.00,2013-07-02 09:30:00,
2013-07-02 02:32:00,63.6,57.0,29.84,NE,54,4.0,10.0,79,0.05,,---,0.23,VWS V14.00,2013-07-02 09:32:00,
2013-07-02 02:37:00,63.5,57.2,29.83,ESE,104,13.0,13.0,80,0.00,,---,0.23,VWS V14.00,2013-07-02 09:37:00,
2013-07-02 02:42:00,63.7,57.4,29.83,ESE,104,10.0,17.0,80,0.00,,---,0.24,VWS V14.00,2013-07-02 09:42:00,
2013-07-02 02:47:00,63.4,57.5,29.83,East,88,11.0,21.0,81,0.07,,---,0.25,VWS V14.00,2013-07-02 09:47:00,
2013-07-02 02:52:00,63.1,57.2,29.80,East,93,9.0,21.0,81,0.18,,---,0.26,VWS V14.00,2013-07-02 09:52:00,
2013-07-02 02:57:00,63.4,57.1,29.78,East,80,7.0,21.0,80,0.14,,---,0.27,VWS V14.00,2013-07-02 09:57:00,
2013-07-02 03:00:00,63.4,57.8,29.78,NE,51,0.0,21.0,82,0.07,,---,0.27,VWS V14.00,2013-07-02 10:00:00,
2013-07-02 03:02:00,63.4,57.8,29.78,ENE,63,5.0,9.0,82,0.07,,---,0.27,VWS V14.00,2013-07-02 10:02:00,
2013-07-02 03:07:00,63.5,57.2,29.80,East,84,6.0,13.0,80,0.06,,---,0.28,VWS V14.00,2013-07-02 10:07:00,
2013-07-02 03:12:00,64.4,57.0,29.80,ENE,71,10.0,17.0,77,0.06,,---,0.28,VWS V14.00,2013-07-02 10:12:00,
2013-07-02 03:17:00,65.1,57.0,29.80,East,101,10.0,17.0,75,0.05,,---,0.28,VWS V14.00,2013-07-02 10:17:00,
2013-07-02 03:22:00,65.3,57.2,29.79,East,90,11.0,17.0,75,0.00,,---,0.28,VWS V14.00,2013-07-02 10:22:00,
2013-07-02 03:27:00,65.4,56.2,29.78,East,84,4.0,17.0,72,0.00,,---,0.28,VWS V14.00,2013-07-02 10:27:00,
2013-07-02 03:30:00,66.6,55.7,29.78,NE,56,1.0,17.0,68,0.00,,---,0.28,VWS V14.00,2013-07-02 10:30:00,
2013-07-02 03:32:00,66.7,55.4,29.78,ENE,69,3.0,5.0,67,0.00,,---,0.28,VWS V14.00,2013-07-02 10:32:00,
2013-07-02 03:37:00,67.0,56.5,29.79,NE,40,0.0,8.0,69,0.00,,---,0.28,VWS V14.00,2013-07-02 10:37:00,
2013-07-02 03:42:00,66.6,56.9,29.79,North,9,0.0,8.0,71,0.00,,---,0.28,VWS V14.00,2013-07-02 10:42:00,
2013-07-02 03:47:00,66.2,56.1,29.78,North,5,0.0,8.0,70,0.00,,---,0.28,VWS V14.00,2013-07-02 10:47:00,
2013-07-02 03:52:00,66.1,56.4,29.78,North,5,0.0,8.0,71,0.00,,---,0.28,VWS V14.00,2013-07-02 10:52:00,
2013-07-02 03:57:00,66.2,57.3,29.78,North,5,0.0,8.0,73,0.00,,---,0.28,VWS V14.00,2013-07-02 10:57:00,
2013-07-02 04:00:00,66.3,57.0,29.77,North,5,0.0,8.0,72,0.00,,---,0.28,VWS V14.00,2013-07-02 11:00:00,
2013-07-02 04:02:00,66.3,56.6,29.77,North,5,0.0,0.0,71,0.00,,---,0.28,VWS V14.00,2013-07-02 11:02:00,
2013-07-02 04:07:00,66.5,58.0,29.76,North,5,0.0,0.0,74,0.00,,---,0.28,VWS V14.00,2013-07-02 11:07:00,
2013-07-02 04:12:00,66.5,57.2,29.76,West,266,0.0,5.0,72,0.00,,---,0.28,VWS V14.00,2013-07-02 11:12:00,
2013-07-02 04:17:00,66.7,58.2,29.76,West,265,0.0,5.0,74,0.00,,---,0.28,VWS V14.00,2013-07-02 11:17:00,
2013-07-02 04:22:00,66.5,58.7,29.76,West,265,0.0,5.0,76,0.00,,---,0.28,VWS V14.00,2013-07-02 11:22:00,
2013-07-02 04:27:00,66.2,58.0,29.77,West,266,0.0,6.0,75,0.00,,---,0.28,VWS V14.00,2013-07-02 11:27:00,
2013-07-02 04:30:00,65.7,58.7,29.78,WNW,283,0.0,9.0,78,0.00,,---,0.28,VWS V14.00,2013-07-02 11:30:00,
2013-07-02 04:32:00,65.7,58.7,29.78,WNW,283,0.0,0.0,78,0.00,,---,0.28,VWS V14.00,2013-07-02 11:32:00,
2013-07-02 04:37:00,64.9,58.6,29.78,WNW,296,0.0,6.0,80,0.00,,---,0.28,VWS V14.00,2013-07-02 11:37:00,
2013-07-02 04:42:00,64.3,58.7,29.81,NNW,335,3.0,9.0,82,0.00,,---,0.28,VWS V14.00,2013-07-02 11:42:00,
2013-07-02 04:47:00,64.2,58.9,29.82,NNW,340,4.0,9.0,83,0.00,,---,0.28,VWS V14.00,2013-07-02 11:47:00,
2013-07-02 04:52:00,64.1,58.8,29.83,NNW,338,4.0,9.0,83,0.00,,---,0.28,VWS V14.00,2013-07-02 11:52:00,
2013-07-02 04:57:00,64.2,58.6,29.82,NNW,346,0.0,9.0,82,0.00,,---,0.28,VWS V14.00,2013-07-02 11:57:00,
2013-07-02 05:00:00,64.3,58.3,29.83,NNW,346,0.0,9.0,81,0.00,,---,0.28,VWS V14.00,2013-07-02 12:00:00,
2013-07-02 05:02:00,64.3,58.3,29.83,NNW,346,0.0,0.0,81,0.00,,---,0.28,VWS V14.00,2013-07-02 12:02:00,
2013-07-02 05:07:00,64.5,58.2,29.83,NNW,346,1.0,6.0,80,0.00,,---,0.28,VWS V14.00,2013-07-02 12:07:00,
2013-07-02 05:12:00,65.1,57.7,29.83,North,9,4.0,11.0,77,0.00,,---,0.28,VWS V14.00,2013-07-02 12:12:00,
2013-07-02 05:17:00,65.6,57.5,29.82,NNE,22,0.0,11.0,75,0.00,,---,0.28,VWS V14.00,2013-07-02 12:17:00,
2013-07-02 05:22:00,65.8,57.3,29.83,North,5,0.0,11.0,74,0.00,,---,0.28,VWS V14.00,2013-07-02 12:22:00,
2013-07-02 05:27:00,65.9,57.0,29.82,North,360,0.0,11.0,73,0.00,,---,0.28,VWS V14.00,2013-07-02 12:27:00,
2013-07-02 05:30:00,65.9,57.8,29.81,North,360,0.0,11.0,75,0.00,,---,0.28,VWS V14.00,2013-07-02 12:30:00,
2013-07-02 05:32:00,65.9,57.4,29.81,North,360,0.0,0.0,74,0.00,,---,0.28,VWS V14.00,2013-07-02 12:32:00,
2013-07-02 05:37:00,66.0,56.7,29.81,NNE,22,0.0,5.0,72,0.00,,---,0.28,VWS V14.00,2013-07-02 12:37:00,
2013-07-02 05:42:00,66.3,57.0,29.81,ENE,69,4.0,5.0,72,0.00,,---,0.28,VWS V14.00,2013-07-02 12:42:00,
2013-07-02 05:47:00,66.4,56.7,29.81,ENE,65,0.0,6.0,71,0.00,,---,0.28,VWS V14.00,2013-07-02 12:47:00,
2013-07-02 05:48:00,66.4,56.7,29.81,ENE,65,0.0,6.0,71,0.00,,---,0.28,VWS V14.00,2013-07-02 12:48:00,
2013-07-02 05:53:00,66.7,56.6,29.82,ENE,70,0.0,6.0,70,0.00,,---,0.28,VWS V14.00,2013-07-02 12:53:00,
2013-07-02 05:58:00,66.8,56.7,29.82,ENE,70,0.0,6.0,70,0.00,,---,0.28,VWS V14.00,2013-07-02 12:58:00,
2013-07-02 06:00:00,67.0,55.7,29.82,ENE,70,0.0,6.0,67,0.00,,---,0.28,VWS V14.00,2013-07-02 13:00:00,
2013-07-02 06:03:00,67.1,56.6,29.82,ENE,70,0.0,0.0,69,0.00,,---,0.28,VWS V14.00,2013-07-02 13:03:00,
2013-07-02 06:08:00,67.4,56.9,29.82,ENE,70,0.0,0.0,69,0.00,,---,0.28,VWS V14.00,2013-07-02 13:08:00,
2013-07-02 06:13:00,67.6,56.3,29.82,ENE,71,0.0,0.0,67,0.00,,---,0.28,VWS V14.00,2013-07-02 13:13:00,
2013-07-02 06:18:00,67.8,56.9,29.82,East,85,0.0,0.0,68,0.00,,---,0.28,VWS V14.00,2013-07-02 13:18:00,
2013-07-02 06:23:00,67.9,56.1,29.82,East,85,0.0,0.0,66,0.00,,---,0.28,VWS V14.00,2013-07-02 13:23:00,
2013-07-02 06:28:00,68.2,56.4,29.82,East,85,1.0,1.0,66,0.00,,---,0.28,VWS V14.00,2013-07-02 13:28:00,
2013-07-02 06:30:00,68.4,57.0,29.82,East,85,0.0,1.0,67,0.00,,---,0.28,VWS V14.00,2013-07-02 13:30:00,
2013-07-02 06:33:00,68.4,57.0,29.82,East,85,0.0,0.0,67,0.00,,---,0.28,VWS V14.00,2013-07-02 13:33:00,
2013-07-02 06:38:00,68.6,57.6,29.82,SE,128,5.0,5.0,68,0.00,,---,0.28,VWS V14.00,2013-07-02 13:38:00,
2013-07-02 06:43:00,68.6,58.4,29.82,SE,144,2.0,7.0,70,0.00,,---,0.28,VWS V14.00,2013-07-02 13:43:00,
2013-07-02 06:48:00,68.3,58.5,29.82,SE,144,6.0,7.0,71,0.00,,---,0.28,VWS V14.00,2013-07-02 13:48:00,
2013-07-02 06:53:00,68.1,58.7,29.82,SE,145,7.0,8.0,72,0.00,,---,0.28,VWS V14.00,2013-07-02 13:53:00,
2013-07-02 06:58:00,68.0,58.7,29.82,SE,132,5.0,9.0,72,0.00,,---,0.28,VWS V14.00,2013-07-02 13:58:00,
2013-07-02 07:00:00,68.1,59.1,29.82,SE,131,0.0,9.0,73,0.00,,---,0.28,VWS V14.00,2013-07-02 14:00:00,
2013-07-02 07:03:00,68.2,58.8,29.82,SE,132,0.0,3.0,72,0.00,,---,0.28,VWS V14.00,2013-07-02 14:03:00,
2013-07-02 07:08:00,68.4,58.6,29.82,SE,132,0.0,3.0,71,0.00,,---,0.28,VWS V14.00,2013-07-02 14:08:00,
2013-07-02 07:13:00,68.8,58.2,29.82,SE,132,0.0,3.0,69,0.00,,---,0.28,VWS V14.00,2013-07-02 14:13:00,
2013-07-02 07:18:00,69.3,59.1,29.82,SE,132,0.0,3.0,70,0.00,,---,0.28,VWS V14.00,2013-07-02 14:18:00,
2013-07-02 07:23:00,69.7,59.1,29.82,SE,132,0.0,3.0,69,0.00,,---,0.28,VWS V14.00,2013-07-02 14:23:00,
2013-07-02 07:28:00,70.3,58.8,29.82,SE,132,0.0,3.0,67,0.00,,---,0.28,VWS V14.00,2013-07-02 14:28:00,
2013-07-02 07:30:00,70.7,57.9,29.82,SE,132,0.0,5.0,64,0.00,,---,0.28,VWS V14.00,2013-07-02 14:30:00,
2013-07-02 07:33:00,70.8,58.0,29.82,SE,132,0.0,0.0,64,0.00,,---,0.28,VWS V14.00,2013-07-02 14:33:00,
2013-07-02 07:38:00,71.3,58.5,29.83,SE,132,0.0,0.0,64,0.00,,---,0.28,VWS V14.00,2013-07-02 14:38:00,
2013-07-02 07:43:00,72.1,57.5,29.82,ESE,121,0.0,5.0,60,0.00,,---,0.28,VWS V14.00,2013-07-02 14:43:00,
2013-07-02 07:48:00,72.9,57.3,29.82,ESE,121,0.0,5.0,58,0.00,,---,0.28,VWS V14.00,2013-07-02 14:48:00,
2013-07-02 07:53:00,73.5,57.3,29.82,SE,146,4.0,7.0,57,0.00,,---,0.28,VWS V14.00,2013-07-02 14:53:00,
2013-07-02 07:58:00,73.7,58.0,29.82,SSE,150,0.0,7.0,58,0.00,,---,0.28,VWS V14.00,2013-07-02 14:58:00,
2013-07-02 08:00:00,73.7,58.5,29.82,SSE,151,0.0,7.0,59,0.00,,---,0.28,VWS V14.00,2013-07-02 15:00:00,
2013-07-02 08:03:00,73.8,58.6,29.82,SSE,151,3.0,7.0,59,0.00,,---,0.28,VWS V14.00,2013-07-02 15:03:00,
2013-07-02 08:08:00,73.9,58.2,29.82,SSE,154,0.0,7.0,58,0.00,,---,0.28,VWS V14.00,2013-07-02 15:08:00,
2013-07-02 08:13:00,74.1,58.9,29.82,SSE,166,4.0,7.0,59,0.00,,---,0.28,VWS V14.00,2013-07-02 15:13:00,
2013-07-02 08:18:00,74.2,58.5,29.82,South,171,0.0,9.0,58,0.00,,---,0.28,VWS V14.00,2013-07-02 15:18:00,
2013-07-02 08:23:00,74.2,58.0,29.83,South,171,0.0,9.0,57,0.00,,---,0.28,VWS V14.00,2013-07-02 15:23:00,
2013-07-02 08:28:00,74.4,58.2,29.83,South,170,0.0,9.0,57,0.00,,---,0.28,VWS V14.00,2013-07-02 15:28:00,
2013-07-02 08:30:00,74.7,58.0,29.83,SW,220,2.0,9.0,56,0.00,,---,0.28,VWS V14.00,2013-07-02 15:30:00,
2013-07-02 08:33:00,74.7,58.0,29.83,SW,225,7.0,7.0,56,0.00,,---,0.28,VWS V14.00,2013-07-02 15:33:00,
2013-07-02 08:38:00,74.6,56.9,29.83,South,173,1.0,8.0,54,0.00,,---,0.28,VWS V14.00,2013-07-02 15:38:00,
2013-07-02 08:43:00,74.9,57.7,29.84,SW,222,0.0,8.0,55,0.00,,---,0.28,VWS V14.00,2013-07-02 15:43:00,
2013-07-02 08:48:00,74.9,58.2,29.84,WSW,244,0.0,8.0,56,0.00,,---,0.28,VWS V14.00,2013-07-02 15:48:00,
2013-07-02 08:53:00,75.0,56.7,29.84,SW,227,0.0,8.0,53,0.00,,---,0.28,VWS V14.00,2013-07-02 15:53:00,
2013-07-02 08:58:00,75.3,57.0,29.84,WSW,250,0.0,8.0,53,0.00,,---,0.28,VWS V14.00,2013-07-02 15:58:00,
2013-07-02 09:00:00,75.3,57.5,29.84,WSW,246,0.0,8.0,54,0.00,,---,0.28,VWS V14.00,2013-07-02 16:00:00,
2013-07-02 09:03:00,75.4,57.1,29.84,WSW,246,0.0,3.0,53,0.00,,---,0.28,VWS V14.00,2013-07-02 16:03:00,
2013-07-02 09:08:00,75.8,58.5,29.84,WSW,246,0.0,3.0,55,0.00,,---,0.28,VWS V14.00,2013-07-02 16:08:00,
2013-07-02 09:13:00,76.1,57.8,29.84,WSW,246,0.0,3.0,53,0.00,,---,0.28,VWS V14.00,2013-07-02 16:13:00,
2013-07-02 09:18:00,76.3,58.5,29.83,WSW,246,0.0,3.0,54,0.00,,---,0.28,VWS V14.00,2013-07-02 16:18:00,
2013-07-02 09:23:00,76.6,57.7,29.84,SW,215,0.0,3.0,52,0.00,,---,0.28,VWS V14.00,2013-07-02 16:23:00,
2013-07-02 09:28:00,77.3,57.2,29.84,SW,215,0.0,3.0,50,0.00,,---,0.28,VWS V14.00,2013-07-02 16:28:00,
2013-07-02 09:30:00,77.8,59.3,29.84,SW,215,0.0,3.0,53,0.00,,---,0.28,VWS V14.00,2013-07-02 16:30:00,
2013-07-02 09:33:00,77.9,58.9,29.84,SW,215,0.0,2.0,52,0.00,,---,0.28,VWS V14.00,2013-07-02 16:33:00,
2013-07-02 09:38:00,78.1,60.1,29.84,WNW,291,0.0,2.0,54,0.00,,---,0.28,VWS V14.00,2013-07-02 16:38:00,
2013-07-02 09:43:00,78.0,59.0,29.84,NW,320,0.0,5.0,52,0.00,,---,0.28,VWS V14.00,2013-07-02 16:43:00,
2013-07-02 09:48:00,78.0,59.0,29.83,West,277,0.0,5.0,52,0.00,,---,0.28,VWS V14.00,2013-07-02 16:48:00,
2013-07-02 09:53:00,78.1,59.6,29.84,West,276,5.0,6.0,53,0.00,,---,0.28,VWS V14.00,2013-07-02 16:53:00,
2013-07-02 09:58:00,78.0,59.5,29.84,WNW,285,1.0,7.0,53,0.00,,---,0.28,VWS V14.00,2013-07-02 16:58:00,
2013-07-02 10:00:00,78.2,59.2,29.84,NW,304,5.0,7.0,52,0.00,,---,0.28,VWS V14.00,2013-07-02 17:00:00,
2013-07-02 10:03:00,78.2,59.2,29.84,NW,306,0.0,6.0,52,0.00,,---,0.28,VWS V14.00,2013-07-02 17:03:00,
2013-07-02 10:08:00,78.0,59.0,29.84,WNW,294,2.0,7.0,52,0.00,,---,0.28,VWS V14.00,2013-07-02 17:08:00,
2013-07-02 10:13:00,78.1,61.1,29.84,WNW,292,4.0,9.0,56,0.00,,---,0.28,VWS V14.00,2013-07-02 17:13:00,
2013-07-02 10:18:00,78.4,59.9,29.84,NNW,327,0.0,9.0,53,0.00,,---,0.28,VWS V14.00,2013-07-02 17:18:00,
2013-07-02 10:23:00,78.8,60.2,29.84,NW,313,6.0,12.0,53,0.00,,---,0.28,VWS V14.00,2013-07-02 17:23:00,
2013-07-02 10:28:00,78.9,59.8,29.84,NW,323,5.0,12.0,52,0.00,,---,0.28,VWS V14.00,2013-07-02 17:28:00,
2013-07-02 10:30:00,78.9,59.8,29.84,NW,321,4.0,13.0,52,0.00,,---,0.28,VWS V14.00,2013-07-02 17:30:00,
2013-07-02 10:33:00,78.9,60.9,29.84,WNW,295,8.0,8.0,54,0.00,,---,0.28,VWS V14.00,2013-07-02 17:33:00,
2013-07-02 10:38:00,79.1,60.0,29.84,WNW,296,5.0,12.0,52,0.00,,---,0.28,VWS V14.00,2013-07-02 17:38:00,
2013-07-02 10:43:00,79.1,60.0,29.84,NNW,344,5.0,12.0,52,0.00,,---,0.28,VWS V14.00,2013-07-02 17:43:00,
2013-07-02 10:48:00,79.1,59.4,29.83,NW,326,0.0,12.0,51,0.00,,---,0.28,VWS V14.00,2013-07-02 17:48:00,
2013-07-02 10:53:00,79.7,60.5,29.84,North,9,0.0,12.0,52,0.00,,---,0.28,VWS V14.00,2013-07-02 17:53:00,
2013-07-02 10:58:00,80.4,59.5,29.83,NNW,338,0.0,12.0,49,0.00,,---,0.28,VWS V14.00,2013-07-02 17:58:00,
2013-07-02 11:00:00,80.5,59.6,29.83,NNW,334,0.0,12.0,49,0.00,,---,0.28,VWS V14.00,2013-07-02 18:00:00,
2013-07-02 11:04:00,80.4,59.5,29.83,NNW,334,0.0,0.0,49,0.00,,---,0.28,VWS V14.00,2013-07-02 18:04:00,
2013-07-02 11:09:00,80.5,59.6,29.83,NNW,336,0.0,0.0,49,0.00,,---,0.28,VWS V14.00,2013-07-02 18:09:00,
2013-07-02 11:14:00,80.9,59.4,29.83,NNW,341,0.0,0.0,48,0.00,,---,0.28,VWS V14.00,2013-07-02 18:14:00,
2013-07-02 11:19:00,81.5,60.5,29.83,NW,324,3.0,6.0,49,0.00,,---,0.28,VWS V14.00,2013-07-02 18:19:00,
2013-07-02 11:24:00,81.8,59.6,29.83,NNE,13,0.0,6.0,47,0.00,,---,0.28,VWS V14.00,2013-07-02 18:24:00,
2013-07-02 11:29:00,81.8,59.6,29.83,North,360,4.0,10.0,47,0.00,,---,0.28,VWS V14.00,2013-07-02 18:29:00,
2013-07-02 11:30:00,82.0,60.4,29.83,WNW,302,0.0,11.0,48,0.00,,---,0.28,VWS V14.00,2013-07-02 18:30:00,
2013-07-02 11:34:00,82.2,60.6,29.83,WNW,296,0.0,0.0,48,0.00,,---,0.28,VWS V14.00,2013-07-02 18:34:00,
2013-07-02 11:39:00,82.6,59.8,29.82,NNW,348,0.0,7.0,46,0.00,,---,0.28,VWS V14.00,2013-07-02 18:39:00,
2013-07-02 11:44:00,82.6,59.8,29.82,NNW,337,0.0,7.0,46,0.00,,---,0.28,VWS V14.00,2013-07-02 18:44:00,
2013-07-02 11:49:00,82.8,60.5,29.82,NNW,345,8.0,11.0,47,0.00,,---,0.28,VWS V14.00,2013-07-02 18:49:00,
2013-07-02 11:54:00,82.4,59.6,29.82,NNW,342,0.0,11.0,46,0.00,,---,0.28,VWS V14.00,2013-07-02 18:54:00,
2013-07-02 11:59:00,82.7,60.4,29.82,NNW,333,4.0,11.0,47,0.00,,---,0.28,VWS V14.00,2013-07-02 18:59:00,
2013-07-02 12:00:00,82.8,60.5,29.81,NW,326,5.0,11.0,47,0.00,,---,0.28,VWS V14.00,2013-07-02 19:00:00,
2013-07-02 12:04:00,82.8,60.5,29.81,NW,310,2.0,7.0,47,0.00,,---,0.28,VWS V14.00,2013-07-02 19:04:00,
2013-07-02 12:09:00,83.2,60.3,29.81,North,355,0.0,10.0,46,0.00,,---,0.28,VWS V14.00,2013-07-02 19:09:00,
2013-07-02 12:14:00,83.8,60.8,29.81,NW,317,5.0,11.0,46,0.00,,---,0.28,VWS V14.00,2013-07-02 19:14:00,
2013-07-02 12:19:00,84.0,59.8,29.80,NW,319,3.0,11.0,44,0.00,,---,0.28,VWS V14.00,2013-07-02 19:19:00,
2013-07-02 12:24:00,83.9,60.3,29.80,WNW,290,6.0,11.0,45,0.00,,---,0.28,VWS V14.00,2013-07-02 19:24:00,
2013-07-02 12:29:00,84.2,59.3,29.80,NNW,329,6.0,11.0,43,0.00,,---,0.28,VWS V14.00,2013-07-02 19:29:00,
2013-07-02 12:30:00,83.8,59.6,29.79,WNW,292,3.0,11.0,44,0.00,,---,0.28,VWS V14.00,2013-07-02 19:30:00,
2013-07-02 12:34:00,83.7,59.5,29.79,WNW,294,0.0,3.0,44,0.00,,---,0.28,VWS V14.00,2013-07-02 19:34:00,
2013-07-02 12:39:00,84.1,59.9,29.79,SW,234,0.0,5.0,44,0.00,,---,0.28,VWS V14.00,2013-07-02 19:39:00,
2013-07-02 12:44:00,84.7,60.4,29.79,NNW,327,5.0,11.0,44,0.00,,---,0.28,VWS V14.00,2013-07-02 19:44:00,
2013-07-02 12:49:00,84.8,59.2,29.79,NW,318,6.0,11.0,42,0.00,,---,0.28,VWS V14.00,2013-07-02 19:49:00,
2013-07-02 12:54:00,84.5,58.9,29.78,NW,314,5.0,11.0,42,0.00,,---,0.28,VWS V14.00,2013-07-02 19:54:00,
2013-07-02 12:59:00,84.6,60.3,29.78,WNW,303,0.0,11.0,44,0.00,,---,0.28,VWS V14.00,2013-07-02 19:59:00,
2013-07-02 13:00:00,85.0,59.4,29.78,NNE,13,4.0,11.0,42,0.00,,---,0.28,VWS V14.00,2013-07-02 20:00:00,
2013-07-02 13:04:00,85.4,59.7,29.78,NNW,339,3.0,11.0,42,0.00,,---,0.28,VWS V14.00,2013-07-02 20:04:00,
2013-07-02 13:09:00,85.4,58.4,29.78,WNW,288,1.0,11.0,40,0.00,,---,0.28,VWS V14.00,2013-07-02 20:09:00,
2013-07-02 13:14:00,85.5,59.1,29.77,WSW,239,0.0,11.0,41,0.00,,---,0.28,VWS V14.00,2013-07-02 20:14:00,
2013-07-02 13:19:00,85.7,59.3,29.77,NNW,336,2.0,11.0,41,0.00,,---,0.28,VWS V14.00,2013-07-02 20:19:00,
2013-07-02 13:24:00,85.8,58.7,29.77,NNW,336,0.0,11.0,40,0.00,,---,0.28,VWS V14.00,2013-07-02 20:24:00,
2013-07-02 13:29:00,85.9,58.8,29.77,WNW,294,0.0,11.0,40,0.00,,---,0.28,VWS V14.00,2013-07-02 20:29:00,
2013-07-02 13:30:00,85.9,58.8,29.76,NW,309,0.0,11.0,40,0.00,,---,0.28,VWS V14.00,2013-07-02 20:30:00,
2013-07-02 13:34:00,85.8,58.7,29.76,SSE,159,1.0,6.0,40,0.00,,---,0.28,VWS V14.00,2013-07-02 20:34:00,
2013-07-02 13:39:00,86.1,59.7,29.76,West,275,0.0,7.0,41,0.00,,---,0.28,VWS V14.00,2013-07-02 20:39:00,
2013-07-02 13:44:00,86.1,58.3,29.76,West,267,0.0,7.0,39,0.00,,---,0.28,VWS V14.00,2013-07-02 20:44:00,
2013-07-02 13:49:00,86.7,58.8,29.75,West,269,1.0,7.0,39,0.00,,---,0.28,VWS V14.00,2013-07-02 20:49:00,
2013-07-02 13:54:00,86.9,59.0,29.75,WNW,294,2.0,11.0,39,0.00,,---,0.28,VWS V14.00,2013-07-02 20:54:00,
2013-07-02 13:59:00,87.5,58.0,29.75,WNW,284,3.0,11.0,37,0.00,,---,0.28,VWS V14.00,2013-07-02 20:59:00,
2013-07-02 14:00:00,87.7,59.0,29.75,NW,309,12.0,12.0,38,0.00,,---,0.28,VWS V14.00,2013-07-02 21:00:00,
2013-07-02 14:04:00,88.1,58.6,29.75,NW,312,0.0,12.0,37,0.00,,---,0.28,VWS V14.00,2013-07-02 21:04:00,
2013-07-02 14:09:00,88.4,58.1,29.75,WNW,300,5.0,12.0,36,0.00,,---,0.28,VWS V14.00,2013-07-02 21:09:00,
2013-07-02 14:15:00,88.6,57.5,29.75,WNW,290,5.0,12.0,35,0.00,,---,0.28,VWS V14.00,2013-07-02 21:15:00,
2013-07-02 14:19:00,88.5,57.4,29.75,North,355,6.0,12.0,35,0.00,,---,0.28,VWS V14.00,2013-07-02 21:19:00,
2013-07-02 14:24:00,88.7,57.6,29.74,NW,314,6.0,13.0,35,0.00,,---,0.28,VWS V14.00,2013-07-02 21:24:00,
2013-07-02 14:29:00,89.1,56.3,29.74,NW,306,5.0,13.0,33,0.00,,---,0.28,VWS V14.00,2013-07-02 21:29:00,
2013-07-02 14:30:00,89.0,56.2,29.74,WNW,288,1.0,13.0,33,0.00,,---,0.28,VWS V14.00,2013-07-02 21:30:00,
2013-07-02 14:34:00,89.0,57.0,29.74,WSW,242,0.0,10.0,34,0.00,,---,0.28,VWS V14.00,2013-07-02 21:34:00,
2013-07-02 14:40:00,89.2,56.4,29.73,West,261,2.0,10.0,33,0.00,,---,0.28,VWS V14.00,2013-07-02 21:40:00,
2013-07-02 14:45:00,89.3,56.5,29.73,West,262,0.0,10.0,33,0.00,,---,0.28,VWS V14.00,2013-07-02 21:45:00,
2013-07-02 14:50:00,89.8,56.9,29.73,North,355,7.0,26.0,33,0.00,,---,0.28,VWS V14.00,2013-07-02 21:50:00,
2013-07-02 14:55:00,89.7,56.0,29.73,WNW,284,3.0,26.0,32,0.00,,---,0.28,VWS V14.00,2013-07-02 21:55:00,
2013-07-02 15:00:00,89.5,55.8,29.72,NNW,337,6.0,26.0,32,0.00,,---,0.28,VWS V14.00,2013-07-02 22:00:00,
2013-07-02 15:05:00,89.6,55.9,29.72,NW,325,0.0,3.0,32,0.00,,---,0.28,VWS V14.00,2013-07-02 22:05:00,
2013-07-02 15:10:00,90.0,56.2,29.72,WNW,293,5.0,10.0,32,0.00,,---,0.28,VWS V14.00,2013-07-02 22:10:00,
2013-07-02 15:15:00,90.0,55.3,29.72,West,279,1.0,10.0,31,0.00,,---,0.28,VWS V14.00,2013-07-02 22:15:00,
2013-07-02 15:20:00,89.8,54.3,29.72,WSW,252,4.0,10.0,30,0.00,,---,0.28,VWS V14.00,2013-07-02 22:20:00,
2013-07-02 15:25:00,90.1,54.5,29.72,NW,317,7.0,10.0,30,0.00,,---,0.28,VWS V14.00,2013-07-02 22:25:00,
2013-07-02 15:30:00,90.0,54.4,29.72,NNW,346,6.0,11.0,30,0.00,,---,0.28,VWS V14.00,2013-07-02 22:30:00,
2013-07-02 15:35:00,89.4,53.9,29.71,NW,321,4.0,5.0,30,0.00,,---,0.28,VWS V14.00,2013-07-02 22:35:00,
2013-07-02 15:40:00,89.5,55.8,29.71,WNW,302,6.0,10.0,32,0.00,,---,0.28,VWS V14.00,2013-07-02 22:40:00,
2013-07-02 15:45:00,89.6,55.0,29.71,West,274,4.0,10.0,31,0.00,,---,0.28,VWS V14.00,2013-07-02 22:45:00,
2013-07-02 15:50:00,89.7,55.1,29.71,SW,225,3.0,10.0,31,0.00,,---,0.28,VWS V14.00,2013-07-02 22:50:00,
2013-07-02 15:55:00,89.8,55.2,29.70,West,277,4.0,10.0,31,0.00,,---,0.28,VWS V14.00,2013-07-02 22:55:00,
2013-07-02 16:00:00,89.7,55.1,29.70,West,261,0.0,11.0,31,0.00,,---,0.28,VWS V14.00,2013-07-02 23:00:00,
2013-07-02 16:05:00,89.8,54.3,29.71,WNW,288,0.0,5.0,30,0.00,,---,0.28,VWS V14.00,2013-07-02 23:05:00,
2013-07-02 16:10:00,89.9,54.3,29.71,WNW,289,0.0,5.0,30,0.00,,---,0.28,VWS V14.00,2013-07-02 23:10:00,
2013-07-02 16:15:00,90.0,54.4,29.70,WNW,289,0.0,5.0,30,0.00,,---,0.28,VWS V14.00,2013-07-02 23:15:00,
2013-07-02 16:20:00,90.3,54.7,29.70,West,269,0.0,8.0,30,0.00,,---,0.28,VWS V14.00,2013-07-02 23:20:00,
2013-07-02 16:25:00,90.5,54.9,29.70,West,261,4.0,9.0,30,0.00,,---,0.28,VWS V14.00,2013-07-02 23:25:00,
2013-07-02 16:29:00,90.5,54.9,29.70,West,263,2.0,9.0,30,0.00,,---,0.28,VWS V14.00,2013-07-02 23:29:00,
2013-07-02 16:30:00,90.3,54.7,29.70,SSW,192,0.0,9.0,30,0.00,,---,0.28,VWS V14.00,2013-07-02 23:30:00,
2013-07-02 16:34:00,90.3,55.6,29.70,South,191,0.0,0.0,31,0.00,,---,0.28,VWS V14.00,2013-07-02 23:34:00,
2013-07-02 16:39:00,90.4,53.8,29.70,West,268,7.0,9.0,29,0.00,,---,0.28,VWS V14.00,2013-07-02 23:39:00,
2013-07-02 16:44:00,90.3,53.8,29.70,NW,322,6.0,12.0,29,0.00,,---,0.28,VWS V14.00,2013-07-02 23:44:00,
2013-07-02 16:49:00,90.2,53.7,29.70,NW,315,2.0,12.0,29,0.00,,---,0.28,VWS V14.00,2013-07-02 23:49:00,
2013-07-02 16:54:00,90.5,53.9,29.70,NW,313,0.0,12.0,29,0.00,,---,0.28,VWS V14.00,2013-07-02 23:54:00,
2013-07-02 16:59:00,90.9,54.3,29.70,NW,323,5.0,12.0,29,0.00,,---,0.28,VWS V14.00,2013-07-02 23:59:00,
2013-07-02 17:00:00,90.8,54.2,29.70,WNW,303,4.0,12.0,29,0.00,,---,0.28,VWS V14.00,2013-07-03 00:00:00,
2013-07-02 17:01:00,90.9,54.3,29.69,NW,312,0.0,12.0,29,0.00,,---,0.28,VWS V14.00,2013-07-03 00:01:00,
2013-07-02 17:06:00,90.6,54.0,29.69,WNW,301,0.0,8.0,29,0.00,,---,0.28,VWS V14.00,2013-07-03 00:06:00,
2013-07-02 17:11:00,90.4,53.8,29.69,West,267,5.0,12.0,29,0.00,,---,0.28,VWS V14.00,2013-07-03 00:11:00,
2013-07-02 17:16:00,90.2,53.7,29.69,WSW,250,0.0,12.0,29,0.00,,---,0.28,VWS V14.00,2013-07-03 00:16:00,
2013-07-02 17:21:00,90.1,53.6,29.69,WSW,252,1.0,14.0,29,0.00,,---,0.28,VWS V14.00,2013-07-03 00:21:00,
2013-07-02 17:23:00,90.0,54.4,29.69,WSW,252,2.0,14.0,30,0.00,,---,0.28,VWS V14.00,2013-07-03 00:23:00,
2013-07-02 17:24:00,90.1,53.6,29.69,WSW,251,0.0,14.0,29,0.00,,---,0.28,VWS V14.00,2013-07-03 00:24:00,
2013-07-02 17:28:00,90.4,54.8,29.69,SW,219,0.0,14.0,30,0.00,,---,0.28,VWS V14.00,2013-07-03 00:28:00,
2013-07-02 17:30:00,90.5,53.9,29.69,WNW,282,5.0,14.0,29,0.00,,---,0.28,VWS V14.00,2013-07-03 00:30:00,
2013-07-02 17:33:00,90.5,54.9,29.69,WNW,296,9.0,9.0,30,0.00,,---,0.28,VWS V14.00,2013-07-03 00:33:00,
2013-07-02 17:38:00,90.1,54.5,29.69,West,273,5.0,9.0,30,0.00,,---,0.28,VWS V14.00,2013-07-03 00:38:00,
2013-07-02 17:43:00,89.8,53.3,29.69,NW,317,1.0,9.0,29,0.00,,---,0.28,VWS V14.00,2013-07-03 00:43:00,
2013-07-02 17:48:00,89.7,54.2,29.70,NW,317,0.0,12.0,30,0.00,,---,0.28,VWS V14.00,2013-07-03 00:48:00,
2013-07-02 17:53:00,89.7,54.2,29.69,WSW,257,1.0,12.0,30,0.00,,---,0.28,VWS V14.00,2013-07-03 00:53:00,
2013-07-02 17:58:00,89.9,53.4,29.69,West,264,0.0,12.0,29,0.00,,---,0.28,VWS V14.00,2013-07-03 00:58:00,
2013-07-02 18:00:00,90.0,53.5,29.69,West,266,5.0,12.0,29,0.00,,---,0.28,VWS V14.00,2013-07-03 01:00:00,
2013-07-02 18:04:00,90.1,53.6,29.70,NW,313,3.0,7.0,29,0.00,,---,0.28,VWS V14.00,2013-07-03 01:04:00,
2013-07-02 18:09:00,89.9,53.4,29.70,NW,306,0.0,7.0,29,0.00,,---,0.28,VWS V14.00,2013-07-03 01:09:00,
2013-07-02 18:14:00,89.8,54.3,29.70,West,269,0.0,7.0,30,0.00,,---,0.28,VWS V14.00,2013-07-03 01:14:00,
2013-07-02 18:19:00,89.7,54.2,29.70,NNW,334,7.0,9.0,30,0.00,,---,0.28,VWS V14.00,2013-07-03 01:19:00,
2013-07-02 18:24:00,89.3,53.8,29.70,WNW,299,3.0,9.0,30,0.00,,---,0.28,VWS V14.00,2013-07-03 01:24:00,
2013-07-02 18:26:00,89.1,53.7,29.70,WNW,292,2.0,9.0,30,0.00,,---,0.28,VWS V14.00,2013-07-03 01:26:00,
2013-07-02 18:30:00,88.9,54.4,29.70,West,268,3.0,9.0,31,0.00,,---,0.28,VWS V14.00,2013-07-03 01:30:00,
2013-07-02 18:31:00,88.9,54.4,29.70,West,268,0.0,9.0,31,0.00,,---,0.28,VWS V14.00,2013-07-03 01:31:00,
2013-07-02 18:36:00,88.6,54.1,29.70,West,268,0.0,3.0,31,0.00,,---,0.28,VWS V14.00,2013-07-03 01:36:00,
2013-07-02 18:41:00,88.3,54.7,29.70,West,268,0.0,5.0,32,0.00,,---,0.28,VWS V14.00,2013-07-03 01:41:00,
2013-07-02 18:46:00,87.9,54.4,29.70,West,268,0.0,5.0,32,0.00,,---,0.28,VWS V14.00,2013-07-03 01:46:00,
2013-07-02 18:49:00,87.6,55.0,29.70,West,269,0.0,5.0,33,0.00,,---,0.28,VWS V14.00,2013-07-03 01:49:00,
2013-07-02 18:50:00,87.5,54.0,29.70,West,269,0.0,5.0,32,0.00,,---,0.28,VWS V14.00,2013-07-03 01:50:00,
2013-07-02 18:56:00,87.3,54.7,29.70,West,269,0.0,5.0,33,0.00,,---,0.28,VWS V14.00,2013-07-03 01:56:00,
2013-07-02 19:00:00,87.0,55.3,29.70,West,269,0.0,5.0,34,0.00,,---,0.28,VWS V14.00,2013-07-03 02:00:00,
2013-07-02 19:01:00,87.0,55.3,29.70,West,269,0.0,5.0,34,0.00,,---,0.28,VWS V14.00,2013-07-03 02:01:00,
2013-07-02 19:06:00,86.8,55.1,29.70,West,269,0.0,0.0,34,0.00,,---,0.28,VWS V14.00,2013-07-03 02:06:00,
2013-07-02 19:11:00,86.5,54.8,29.70,West,269,0.0,0.0,34,0.00,,---,0.28,VWS V14.00,2013-07-03 02:11:00,
2013-07-02 19:16:00,86.2,55.4,29.71,West,269,0.0,0.0,35,0.00,,---,0.28,VWS V14.00,2013-07-03 02:16:00,
2013-07-02 19:21:00,85.9,55.9,29.72,West,269,0.0,0.0,36,0.00,,---,0.28,VWS V14.00,2013-07-03 02:21:00,
2013-07-02 19:26:00,85.6,56.4,29.72,West,269,0.0,0.0,37,0.00,,---,0.28,VWS V14.00,2013-07-03 02:26:00,
2013-07-02 19:30:00,85.5,56.3,29.73,West,269,0.0,0.0,37,0.00,,---,0.28,VWS V14.00,2013-07-03 02:30:00,
2013-07-02 19:31:00,85.5,56.3,29.73,West,269,0.0,0.0,37,0.00,,---,0.28,VWS V14.00,2013-07-03 02:31:00,
2013-07-02 19:33:00,85.4,56.2,29.73,West,269,0.0,0.0,37,0.00,,---,0.28,VWS V14.00,2013-07-03 02:33:00,
2013-07-02 19:38:00,85.4,56.2,29.73,West,269,0.0,0.0,37,0.00,,---,0.28,VWS V14.00,2013-07-03 02:38:00,
2013-07-02 19:43:00,85.4,56.2,29.73,West,269,0.0,2.0,37,0.00,,---,0.28,VWS V14.00,2013-07-03 02:43:00,
2013-07-02 19:47:00,85.3,56.1,29.73,West,269,0.0,2.0,37,0.00,,---,0.28,VWS V14.00,2013-07-03 02:47:00,
2013-07-02 19:52:00,85.1,56.7,29.76,North,355,14.0,18.0,38,0.00,,---,0.28,VWS V14.00,2013-07-03 02:52:00,
2013-07-02 19:57:00,80.4,53.9,29.77,NNE,26,10.0,26.0,40,0.00,,---,0.28,VWS V14.00,2013-07-03 02:57:00,
2013-07-02 20:00:00,77.9,53.6,29.78,North,355,5.0,26.0,43,0.00,,---,0.28,VWS V14.00,2013-07-03 03:00:00,
2013-07-02 20:02:00,77.8,54.2,29.78,North,360,9.0,12.0,44,0.00,,---,0.28,VWS V14.00,2013-07-03 03:02:00,
2013-07-02 20:07:00,76.5,54.2,29.78,NE,48,11.0,22.0,46,0.00,,---,0.28,VWS V14.00,2013-07-03 03:07:00,
2013-07-02 20:12:00,75.1,54.1,29.77,NE,52,11.0,22.0,48,0.00,,---,0.28,VWS V14.00,2013-07-03 03:12:00,
2013-07-02 20:17:00,74.0,55.3,29.77,NNE,23,14.0,31.0,52,0.00,,---,0.28,VWS V14.00,2013-07-03 03:17:00,
2013-07-02 20:20:00,72.9,56.8,29.77,NE,51,6.0,31.0,57,0.00,,---,0.28,VWS V14.00,2013-07-03 03:20:00,
2013-07-02 20:25:00,70.7,55.7,29.77,East,96,4.0,31.0,59,0.00,,---,0.28,VWS V14.00,2013-07-03 03:25:00,
2013-07-02 20:30:00,69.4,57.6,29.77,ESE,108,10.0,31.0,66,0.00,,---,0.28,VWS V14.00,2013-07-03 03:30:00,
2013-07-02 20:31:00,69.6,57.3,29.77,East,84,8.0,31.0,65,0.00,,---,0.28,VWS V14.00,2013-07-03 03:31:00,
2013-07-02 20:56:00,71.8,55.3,29.80,NNE,27,15.0,15.0,56,0.00,,---,0.28,VWS V14.00,2013-07-03 03:56:00,
2013-07-02 20:57:00,72.0,55.5,29.80,NE,47,19.0,21.0,56,0.00,,---,0.28,VWS V14.00,2013-07-03 03:57:00,
2013-07-02 21:00:00,71.6,56.5,29.80,NE,49,3.0,26.0,59,0.00,,---,0.28,VWS V14.00,2013-07-03 04:00:00,
2013-07-02 21:01:00,71.5,56.9,29.80,NNE,28,12.0,26.0,60,0.00,,---,0.28,VWS V14.00,2013-07-03 04:01:00,
2013-07-02 21:03:00,71.0,56.9,29.79,NE,56,7.0,21.0,61,0.00,,---,0.28,VWS V14.00,2013-07-03 04:03:00,
2013-07-02 21:04:00,70.7,57.5,29.78,NE,51,6.0,21.0,63,0.00,,---,0.28,VWS V14.00,2013-07-03 04:04:00,
2013-07-02 21:09:00,68.8,57.8,29.78,East,81,10.0,21.0,68,0.27,,---,0.30,VWS V14.00,2013-07-03 04:09:00,
2013-07-02 21:14:00,66.9,58.0,29.78,East,98,11.0,21.0,73,0.24,,---,0.33,VWS V14.00,2013-07-03 04:14:00,
2013-07-02 21:19:00,66.3,58.5,29.77,East,86,10.0,21.0,76,0.12,,---,0.34,VWS V14.00,2013-07-03 04:19:00,
2013-07-02 21:25:00,66.5,58.3,29.78,ENE,67,10.0,21.0,75,0.09,,---,0.34,VWS V14.00,2013-07-03 04:25:00,
2013-07-02 21:30:00,67.0,58.5,29.80,East,82,7.0,21.0,74,0.05,,---,0.34,VWS V14.00,2013-07-03 04:30:00,
2013-07-02 21:31:00,67.1,58.2,29.80,East,81,10.0,21.0,73,0.05,,---,0.34,VWS V14.00,2013-07-03 04:31:00,
2013-07-02 21:32:00,67.2,57.9,29.80,East,79,3.0,7.0,72,0.04,,---,0.34,VWS V14.00,2013-07-03 04:32:00,
2013-07-02 21:37:00,68.4,57.0,29.82,NNE,20,13.0,21.0,67,0.00,,---,0.34,VWS V14.00,2013-07-03 04:37:00,
2013-07-02 21:42:00,68.6,58.0,29.83,North,360,22.0,24.0,69,0.00,,---,0.34,VWS V14.00,2013-07-03 04:42:00,
2013-07-02 21:45:00,68.0,57.9,29.83,North,5,18.0,26.0,70,0.00,,---,0.34,VWS V14.00,2013-07-03 04:45:00,
2013-07-02 21:46:00,67.7,58.0,29.83,NNW,340,12.0,26.0,71,0.00,,---,0.34,VWS V14.00,2013-07-03 04:46:00,
2013-07-02 21:51:00,67.6,57.5,29.83,NNE,15,14.0,26.0,70,0.00,,---,0.34,VWS V14.00,2013-07-03 04:51:00,
2013-07-02 21:53:00,67.8,57.3,29.84,North,5,15.0,26.0,69,0.00,,---,0.34,VWS V14.00,2013-07-03 04:53:00,
2013-07-02 21:58:00,67.7,58.0,29.85,NW,315,16.0,26.0,71,0.00,,---,0.34,VWS V14.00,2013-07-03 04:58:00,
2013-07-02 22:00:00,67.6,57.9,29.86,North,5,9.0,28.0,71,0.00,,---,0.34,VWS V14.00,2013-07-03 05:00:00,
2013-07-02 22:03:00,67.6,57.9,29.87,NNW,340,11.0,18.0,71,0.00,,---,0.34,VWS V14.00,2013-07-03 05:03:00,
2013-07-02 22:07:00,67.4,57.7,29.87,NNW,347,12.0,18.0,71,0.00,,---,0.34,VWS V14.00,2013-07-03 05:07:00,
2013-07-02 22:12:00,67.5,57.8,29.88,North,351,14.0,20.0,71,0.00,,---,0.34,VWS V14.00,2013-07-03 05:12:00,
2013-07-02 22:30:00,67.4,57.3,29.89,North,0,13.0,25.0,70,0.00,,---,0.34,VWS V14.00,2013-07-03 05:30:00,
2013-07-02 23:00:00,67.1,53.7,29.85,NNE,22,9.0,22.0,62,0.04,,---,0.36,VWS V14.00,2013-07-03 06:00:00,
2013-07-02 23:30:00,68.1,54.2,29.80,ENE,68,8.0,17.0,61,0.05,,---,0.37,VWS V14.00,2013-07-03 06:30:00,